Regional Weather Roundup
Issued by NWS Green Bay, WI

Home | Current Version | Previous Version | Graphics & Text | Print | Product List | Glossary Off
Versions: 1 2 3 4 5 6 7 8 9 10 11 12 13 14 15 16 17 18 19 20 21 22 23 24 25 26 27 28 29 30 31 32 33 34 35 36 37 38 39 40 41 42 43 44 45 46 47 48 49 50

000
ASUS43 KGRB 242000
RWRGRB

NORTH-CENTRAL AND NORTHEAST WISCONSIN REGIONAL WEATHER ROUNDUP
NATIONAL WEATHER SERVICE GREEN BAY WI
300 PM CDT SUN JUL 24 2016

WIZ005-009-010>012-018-019-242100-
NORTH CENTRAL WISCONSIN

CITY           SKY/WX    TMP DP  RH WIND       PRES   REMARKS
IRONWOOD       MOSUNNY   81  64  57 NW13      29.78S
MANITOWISH WTR NOT AVBL
ARBOR VITAE    NOT AVBL
EAGLE RIVER    NOT AVBL
LAND O LAKES   NOT AVBL
RHINELANDER    MOSUNNY   84  66  54 W9G22     29.84S
PHILLIPS       NOT AVBL
ANTIGO         NOT AVBL
TOMAHAWK       NOT AVBL
MERRILL        NOT AVBL
$$

WIZ013-073-242100-
NORTHEAST WISCONSIN

CITY           SKY/WX    TMP DP  RH WIND       PRES   REMARKS
IRON MOUNTAIN  PTSUNNY   84  72  67 SW9       29.78S
MARINETTE      CLOUDY    80  76  87 SW8       29.78S
$$

WIZ017-030-035>037-045-242100-
CENTRAL WISCONSIN

CITY           SKY/WX    TMP DP  RH WIND       PRES   REMARKS
MEDFORD        NOT AVBL
WAUSAU         MOSUNNY   84  69  60 W14       29.82S
MOSINEE        PTSUNNY   82  73  74 SW10      29.85F
MARSHFIELD     SUNNY     85  64  49 W16G22    29.85S
WISC RAPIDS    MOSUNNY   87  69  54 NW9       29.85S HX  91
STEVENS POINT  NOT AVBL
WAUPACA        NOT AVBL
SHAWANO        NOT AVBL
CLINTONVILLE   NOT AVBL
WAUTOMA        MOSUNNY   87  77  72 W9        29.82S HX  99
$$

WIZ038-039-048-051-242100-
FOX VALLEY

CITY           SKY/WX    TMP DP  RH WIND       PRES   REMARKS
NWS GREEN BAY  CLOUDY    83  80  91 W5        29.78F HX  95
APPLETON       PTSUNNY   84  75  74 W12G18    29.79F HX  92
OSHKOSH        PTSUNNY   87  78  74 W9        29.80S HX 100
FOND DU LAC    PTSUNNY   89  78  70 SW10      29.80F HX 103
$$

WIZ022-050-052-242100-
EAST CENTRAL WISCONSIN

CITY           SKY/WX    TMP DP  RH WIND       PRES   REMARKS
EPHRAIM        NOT AVBL
WASHINGTON ISL NOT AVBL
STURGEON BAY   CLOUDY    78  73  84 S13       29.79F
MANITOWOC      NOT AVBL
SHEBOYGAN      SUNNY     82  74  76 S7        29.81F
$$

LMZ563-521-522-541>543-242100-
LAKESHORE

STATION/POSITION TIME  TEMP    WIND        PRES    VSBY  WAVE
                       AIR SEA DIR/SP/G                  HT/PER
                 (UTC) (F)     (DEG/KT/KT) (MB)    (MI)  (FT/S)
SHEBOYGAN LKSHOR 1900   70     180/ 20/ 22 1009.8F
KEWAUNEE LKSHORE 1900   67     180/ 15/ 16 1009.1F
NORTHPORT PIER   1940   74     160/  5/ 11 1008.1F
N MID LAKE BUOY  1850   69 68  210/ 12/ 14 1008.4S         4/ 6
CHAMBERS ISLAND  1900   77     190/  6/ 13 1008.5F
MENOMINEE LKSHOR 1900   78     200/  8/ 11 1007.6F
$$



USA.gov is the U.S. government's official web portal to all federal, state and local government web resources and services.